Overview Statistics Trail Chart Weather Telemetry Raw packets
 

This is the latest recevied weather packets stored in our database for station/object N7ZAP. If no packets are shown the sender has not sent any weather packets the latest 10 day(s).

<< 80 81 82 83 84 85 86 >>
Time Temp. Humidity Pressure Rain* Wind** Luminosity Snow
1788110683 31.67° C 32% 1022.3 hPa 0 mm - - -
1788110378 31.67° C 32% 1022.5 hPa 0 mm - - -
1788110074 31.11° C 33% 1022.4 hPa 0 mm - - -
1788109774 30.56° C 34% 1022.5 hPa 0 mm - - -
1788109474 30.56° C 34% 1022.4 hPa 0 mm - - -
1788109172 30° C 36% 1022.5 hPa 0 mm - - -
1788108869 29.44° C 37% 1022.6 hPa 0 mm - - -
1788108564 29.44° C 35% 1022.5 hPa 0 mm - - -
1788108260 29.44° C 36% 1022.7 hPa 0 mm - - -
1788107968 28.89° C 38% 1023 hPa 0 mm - - -
1788107653 28.89° C 37% 1022.7 hPa 0 mm - - -
1788107352 28.89° C 38% 1022.5 hPa 0 mm - - -
1788107049 28.89° C 38% 1022.4 hPa 0 mm - - -
1788106743 30° C 37% 1022.8 hPa 0 mm - - -
1788106442 29.44° C 38% 1022.7 hPa 0 mm - - -
1788106138 28.89° C 40% 1023.1 hPa 0 mm - - -
1788105833 28.33° C 39% 1023.1 hPa 0 mm - - -
1788105534 27.78° C 41% 1023 hPa 0 mm - - -
1788105230 27.78° C 41% 1023.1 hPa 0 mm - - -
1788104925 27.78° C 42% 1023.2 hPa 0 mm - - -
1788104621 27.78° C 42% 1023.3 hPa 0 mm - - -
1788104318 27.78° C 43% 1023.3 hPa 0 mm - - -
1788104012 27.78° C 44% 1023.2 hPa 0 mm - - -
1788103711 27.22° C 44% 1023.2 hPa 0 mm - - -
1788103407 26.67° C 45% 1023.4 hPa 0 mm - - -

* Rain latest hour (hover to see other rain measurements)
** Current wind speed in m/s (hover to see current wind gust speed)